Santa Ana, CA

8:04 AM PDT on July 28, 2017 (GMT -0700)
John Wayne-Orange County

Weather History for KSNA - August, 2014

Change the Weather History Date:

Thursday, August 28, 2014

  Actual Average Record
Temperature  
Mean Temperature 83 °F 73 °F  
Max Temperature 93 °F 81 °F 93 °F (2014)
Min Temperature 73 °F 65 °F 62 °F (1999)
Degree Days  
Heating Degree Days 0 0  
Month to date heating degree days 0 0  
Since 1 June heating degree days 0 7  
Since 1 July heating degree days 0 0  
Cooling Degree Days 18 8  
Month to date cooling degree days 331 215  
Year to date cooling degree days 1207 549  
Since 1 June cooling degree days 870 482  
Growing Degree Days 32 (Base 50)    
Moisture  
Dew Point 57 °F    
Average Humidity 43    
Maximum Humidity 61    
Minimum Humidity 25    
Precipitation  
Precipitation 0.00 in 0.00 in 0.01 in (1951)
Month to date precipitation 0.03 0.03  
Year to date precipitation 2.62 9.03  
Since 1 July precipitation 0.03  
Snow  
Snow 0.00 in - - ()
Month to date snowfall 0.0  
Year to date snowfall 0.0  
Snow Depth 0.00 in    
Sea Level Pressure  
Sea Level Pressure 29.94 in    
Wind  
Wind Speed 4 mph (SW)    
Max Wind Speed 12 mph    
Max Gust Speed 15 mph    
Visibility 10 miles    
Events      
T = Trace of Precipitation, MM = Missing Value Source: NWS Daily Summary

Daily Weather History Graph

Daily Weather History Graph

Search for Another Location

Airport or City:

Trip Planner

Search our weather history database for the weather conditions in past years. The results will help you decide how hot, cold, wet, or windy it might be!

Date:

Astronomy

Aug. 28, 2014 Rise Set
Actual Time 6:22 AM PDT 7:22 PM PDT
Civil Twilight 5:57 AM PDT 7:47 PM PDT
Nautical Twilight 5:26 AM PDT 8:17 PM PDT
Astronomical Twilight 4:55 AM PDT 8:49 PM PDT
Moon 9:09 AM PDT 9:00 PM PDT
Length of Visible Light 13h 50m
Length of Day
12h 59m
Waxing Crescent, 9% of the Moon is Illuminated
Aug 28
Waxing Crescent
Sep 2
First Quarter
Sep 8
Full
Sep 15
Last Quarter
Sep 23
New

Hourly Weather History & Observations

Time (PDT) Temp. Heat Index Dew Point Humidity Pressure Visibility Wind Dir Wind Speed Gust Speed Precip Events Conditions
12:53 AM 77.0 °F - 55.9 °F 48% 30.01 in 10.0 mi Calm Calm - N/A   Clear
1:53 AM 77.0 °F - 53.1 °F 43% 29.99 in 10.0 mi Calm Calm - N/A   Clear
2:53 AM 75.9 °F - 55.0 °F 48% 29.99 in 10.0 mi Calm Calm - N/A   Clear
3:53 AM 75.9 °F - 55.9 °F 50% 29.98 in 10.0 mi SSW 3.5 mph - N/A   Clear
4:53 AM 73.0 °F - 57.0 °F 57% 29.98 in 10.0 mi Calm Calm - N/A   Clear
5:53 AM 73.0 °F - 57.9 °F 59% 29.98 in 10.0 mi WSW 3.5 mph - N/A   Clear
6:53 AM 73.0 °F - 59.0 °F 61% 29.99 in 10.0 mi Calm Calm - N/A   Clear
7:53 AM 75.0 °F - 59.0 °F 57% 29.99 in 10.0 mi South 3.5 mph - N/A   Clear
8:53 AM 80.1 °F 80.4 °F 57.0 °F 45% 29.99 in 10.0 mi Calm Calm - N/A   Clear
9:53 AM 84.9 °F 83.3 °F 54.0 °F 34% 29.99 in 10.0 mi Calm Calm - N/A   Clear
10:53 AM 88.0 °F 86.5 °F 55.9 °F 34% 29.98 in 10.0 mi Calm Calm - N/A   Clear
11:53 AM 91.0 °F - 50.0 °F 24% 29.96 in 10.0 mi WSW 6.9 mph - N/A   Clear
12:53 PM 91.9 °F 89.5 °F 53.1 °F 27% 29.94 in 10.0 mi WSW 8.1 mph - N/A   Clear
1:53 PM 89.1 °F 87.1 °F 55.0 °F 31% 29.93 in 10.0 mi WSW 10.4 mph - N/A   Clear
2:53 PM 89.1 °F 88.0 °F 57.9 °F 35% 29.91 in 10.0 mi SW 9.2 mph - N/A   Clear
3:53 PM 91.0 °F - 52.0 °F 26% 29.89 in 10.0 mi SW 8.1 mph - N/A   Clear
4:53 PM 87.1 °F 86.1 °F 57.9 °F 37% 29.88 in 10.0 mi SW 9.2 mph - N/A   Clear
5:53 PM 84.0 °F 83.5 °F 57.9 °F 41% 29.88 in 10.0 mi SW 5.8 mph - N/A   Clear
6:53 PM 80.1 °F 81.1 °F 61.0 °F 52% 29.88 in 10.0 mi SSW 3.5 mph - N/A   Clear
7:53 PM 79.0 °F - 57.9 °F 48% 29.88 in 10.0 mi WSW 3.5 mph - N/A   Clear
8:53 PM 78.1 °F - 57.9 °F 50% 29.90 in 10.0 mi SW 4.6 mph - N/A   Clear
9:53 PM 75.9 °F - 57.9 °F 54% 29.91 in 10.0 mi West 4.6 mph - N/A   Partly Cloudy
10:53 PM 73.9 °F - 61.0 °F 64% 29.90 in 10.0 mi SW 4.6 mph - N/A   Partly Cloudy
11:53 PM 73.0 °F - 61.0 °F 66% 29.89 in 10.0 mi Calm Calm - N/A   Clear